Regional Weather Roundup
Issued by NWS Upton, NY

Current Version | Previous Version | Text Only | Print | Product List | Glossary On
Versions: 1 2 3 4 5 6 7 8 9 10 11 12 13 14 15 16 17 18 19 20 21 22 23 24 25 26 27
000 ASUS41 KOKX 270908 RWROKX REGIONAL WEATHER ROUNDUP NATIONAL WEATHER SERVICE NEW YORK NY 500 AM EDT THU APR 27 2017 NOTE: "FAIR" INDICATES FEW OR NO CLOUDS BELOW 12,000 FEET WITH NO SIGNIFICANT WEATHER AND/OR OBSTRUCTIONS TO VISIBILITY. NYZ071-072-176-178-NJZ106-104-271000- NEW YORK CITY METRO AREA CITY SKY/WX TMP DP RH WIND PRES REMARKS Central Park CLOUDY 59 58 96 CALM 29.88S FOG Wall St Helipt CLOUDY 57 57 100 CALM 29.87S VSB 1/2 Bronx Bot Gard N/A 57 57 100 CALM 29.88R LaGuardia APRT DRZL/FOG 58 56 93 CALM 29.85S VSB 1/2 Kennedy INTL DRZL/FOG 58 58 100 SW3 29.87R VSB 3/4 Breezy Point N/A 57 N/A N/A W1 N/A Newark/Liberty DRIZZLE 59 58 96 CALM 29.85S FOG Teterboro DRIZZLE 60 59 96 CALM 29.85R FOG $$ NYZ177-179-078>081-271000- LONG ISLAND NEW YORK CITY SKY/WX TMP DP RH WIND PRES REMARKS Jones Beach N/A 54 N/A N/A S2 N/A Matinecock PT N/A 55 N/A N/A CALM N/A Farmingdale CLOUDY 57 57 100 CALM 29.86R FOG MacArthur/ISP CLOUDY 56 56 100 CALM 29.86R FOG Shirley CLOUDY 56 56 100 CALM 29.87R FOG Mt Sinai Harb N/A N/A N/A N/A MISG N/A Westhampton CLOUDY 55 54 96 CALM 29.88S FOG East Hampton CLOUDY 54 54 99 CALM 29.86S FOG Montauk N/A 52 52 100 CALM 29.87 $$ NYZ052-065-067-271000- HUDSON VALLEY CITY SKY/WX TMP DP RH WIND PRES REMARKS White Plains N/A 58 56 93 CALM 29.85S FOG Larchmont Harb N/A 52 N/A N/A MISG N/A Croton O-T Hud N/A 55 N/A N/A MISG N/A Newburgh CLOUDY 57 57 100 CALM 29.86S FOG Montgomery CLOUDY 57 56 96 CALM 29.84S FOG Poughkeepsie CLOUDY 58 56 93 CALM 29.84S FOG Albany CLOUDY 60 54 80 CALM 29.85R $$ NJZ001-105-106-008-010-013-015-019>022-104-271000- NEW JERSEY CITY SKY/WX TMP DP RH WIND PRES REMARKS Newark/Liberty DRIZZLE 59 58 96 CALM 29.85S FOG Teterboro DRIZZLE 60 59 96 CALM 29.85R FOG Caldwell CLOUDY 58 58 100 CALM 29.86R FOG Somerville CLOUDY 59 58 96 CALM 29.84S FOG Linden CLOUDY 59 58 97 CALM 29.86S FOG Sussex CLOUDY 57 57 100 CALM 29.86S FOG Andover N/A 57 56 96 CALM 29.85S Trenton CLOUDY 60 57 89 CALM 29.85R Millville CLOUDY 58 58 100 SE3 29.86R FOG Atlantic City CLOUDY 57 54 89 CALM 29.86S FOG Wrightstown CLOUDY 58 57 96 S5 29.84R Toms River CLOUDY 58 56 93 E3 29.87S Belmar CLOUDY 58 57 97 S3 29.88R FOG $$ PAZ047>061-062-071-271000- EASTERN PENNSYLVANIA CITY SKY/WX TMP DP RH WIND PRES REMARKS Philadelphia NOT AVBL Allentown CLOUDY 62 55 77 CALM 29.84S Scranton CLOUDY 57 55 93 CALM 29.83R $$ CTZ002-004>006-009-010-012-RIZ004-006-007-MAZ004-011-015-271000- SOUTHERN NEW ENGLAND IN CT CITY SKY/WX TMP DP RH WIND PRES REMARKS Bradley INTL CLOUDY 56 55 97 N3 29.86R Hartford CLOUDY 57 57 100 CALM 29.85S FOG Danbury CLOUDY 56 56 100 SE3 29.86S Wtrbury/Oxford CLOUDY 55 54 94 CALM 29.87S VSB<1/4 Bridgeport CLOUDY 56 54 93 CALM 29.85S Meriden CLOUDY 58 57 97 CALM 29.86S FOG New Haven CLOUDY 55 55 100 CALM 29.85S FOG Chester CLOUDY 57 57 100 CALM 29.86S FOG Groton CLOUDY 54 53 97 CALM 29.85S FOG Wilimantic CLOUDY 58 57 97 E3 29.86F FOG IN RI CITY SKY/WX TMP DP RH WIND PRES REMARKS Providence CLOUDY 55 55 100 N6 29.86R FOG Block Island FOG 53 53 100 CALM 29.87R VSB 1/2 Westerly CLOUDY 54 54 100 CALM 29.87R FOG IN MA CITY SKY/WX TMP DP RH WIND PRES REMARKS Boston FOG 51 51 100 NW5 29.86S VSB 1/2 Worcester FOG 51 50 96 N6 29.87R VSB 1/2 Westfield CLOUDY 55 55 100 CALM 29.86R Provincetown MOCLDY 49 49 100 W3 29.87R Nantucket CLOUDY 52 52 100 CALM 29.85R $$ ANZ330-335-338-340-345-350-353-355-271000- COASTAL MARINE OBSERVATIONS STATION/POSITION TIME SKY/WX TEMP WIND PRES VSBY WAVE AIR SEA DIR/SP/G HT/PER (UTC) (F) (DEG/KT/KT) (MB) (MI) (FT/S) NY HARB ENTRANCE 0750 53 49 220/ 2/ 2 1011.2 6/10 20 S FIRE ISLAND 0850 51 49 220/ 2/ 4 1011.0 7/10 GREAT SOUTH BAY 0830 55 57 CALM / 2 N/A 23 SSW MONTAUK P 0750 47 45 1011.6 8/10 15 E BARNEGAT LI 0830 51 N/A 6/11 HUDSON CANYON 0750 51 50 300/ 2/ 4 1011.4 8/10 KINGS POINT 0836 55 49 CALM 1010.9 EXECUTION ROCKS NOT AVBL CENTRAL LI SOUND 0815 48 240/ 4/ 6 N/A 0 EASTERN LI SOUND NOT AVBL ROBBINS REEF 0848 58 160/ 4/ 4 1011.3 $$ >>>>>>>>>>>>>>>>>>>>>>>>>>>> KEY <<<<<<<<<<<<<<<<<<<<<<<<<<< > < > SKY/WX - Sky Condition/Present Weather < > TMP - Temperature in Fahrenheit < > DP - Dew Point in Fahrenheit < > RH - Relative Humidity in Percent < > WIND - Direction (from) and Speed in MPH < > PRES - Mean Sea Level Pressure (inches of Hg) < > WCI - Wind Chill Index < > VSB - VISIBILITY IN MILES < > HX - HEAT INDEX < > TC - TEMPERATURE IN CELSIUS < > VRB - VARIABLE WIND DIRECTION < > < >>>>>>>>>>>>>>>>>>>>>>>>>>>> KEY <<<<<<<<<<<<<<<<<<<<<<<<<<<

USA.gov is the U.S. government's official web portal to all federal, state and local government web resources and services.